Weather observations for the past three days for
Grove, Grove Municipal Airport
Imperial (Metric)
Date Time (cdt) Wind (mph) Vis. (mi.) Weather Sky Cond. Temperature (ºF) Relative Humidity Wind Chill (°F) Heat Index (°F) Pressure Precipitation (in)
Air Dwpt 6 hour altimeter (in) sea level (mb) 1 hr 3 hr 6 hr
Max. Min.
19 03:15 Calm 10.00 Fair CLR 60.8 60.8 100% 30.13 0.0
19 02:55 Calm 10.00 Fair CLR 60.8 60.8 100% 30.13 0.0
19 02:35 Calm 10.00 Fair CLR 60.8 60.8 100% 30.14 0.0
19 02:15 Calm 10.00 Fair CLR 60.8 60.8 100% 30.14 0.0
19 01:55 Calm 10.00 A Few Clouds FEW050 60.8 60.8 100% 30.15 0.0
19 01:35 Calm 10.00 A Few Clouds FEW050 60.8 60.8 100% 30.15 0.0
19 01:15 Calm 10.00 A Few Clouds FEW050 62.6 62.6 100% 30.15 0.0
19 00:55 Calm 10.00 A Few Clouds FEW050 62.6 62.6 100% 30.16 0.0
19 00:35 Calm 10.00 Fair CLR 64.4 60.8 88% 30.15 0.0
19 00:15 Calm 10.00 Fair CLR 64.4 62.6 94% 30.15 0.0
18 23:55 Calm 10.00 Fair CLR 64.4 62.6 94% 30.14 0.0
18 23:35 Calm 10.00 Fair CLR 64.4 62.6 94% 30.14 0.0
18 23:15 Calm 10.00 Fair CLR 66.2 62.6 88% 30.14 0.0
18 22:55 Calm 10.00 Fair CLR 66.2 62.6 88% 30.14 0.0
18 22:35 Calm 10.00 Fair CLR 68 62.6 83% 30.14 0.0
18 22:15 Calm 10.00 Fair CLR 68 62.6 83% 30.13 0.0
18 21:55 Calm 10.00 Fair CLR 69.8 62.6 78% 30.13 0.0
18 21:35 Calm 10.00 Fair CLR 69.8 62.6 78% 30.12 0.0
18 21:15 Calm 10.00 Fair CLR 71.6 62.6 73% 30.11 0.0
18 20:55 NE 3 10.00 Fair CLR 73.4 60.8 65% 30.11 0.0
18 20:35 NE 6 10.00 Fair CLR 75.2 60.8 61% 77 30.11 0.0
18 20:15 NE 9 G 16 10.00 Fair CLR 77 60.8 57% 79 30.1 0.0
18 19:55 NE 7 10.00 Fair CLR 78.8 59 51% 80 30.09 0.0
18 19:35 NE 5 10.00 Fair CLR 78.8 59 51% 80 30.09 0.0
18 19:15 NE 7 10.00 Fair CLR 80.6 59 48% 81 30.09 0.0
18 18:55 Vrbl 6 10.00 Fair CLR 80.6 59 48% 81 30.09 0.0
18 18:35 NE 7 10.00 A Few Clouds FEW060 82.4 59 45% 82 30.09 0.0
18 18:15 N 8 10.00 Fair CLR 82.4 60.8 48% 83 30.1 0.0
18 17:55 Vrbl 7 G 13 10.00 Fair CLR 82.4 59 45% 82 30.1 0.0
18 17:35 Vrbl 7 10.00 A Few Clouds FEW060 82.4 59 45% 82 30.1 0.0
18 17:15 Vrbl 7 G 14 10.00 A Few Clouds FEW060 82.4 59 45% 82 30.11 0.0
18 16:55 N 8 10.00 Fair CLR 82.4 60.8 48% 83 30.11 0.0
18 16:35 N 7 G 15 10.00 A Few Clouds FEW060 84.2 59 43% 84 30.11 0.0
18 16:15 Vrbl 6 10.00 Partly Cloudy SCT060 80.6 62.6 54% 82 30.12 0.0
18 15:55 NW 8 10.00 Partly Cloudy SCT060 84.2 60.8 45% 84 30.12 0.0
18 15:35 Vrbl 7 10.00 A Few Clouds FEW060 84.2 60.8 45% 84 30.13 0.0
18 15:15 Vrbl 7 10.00 A Few Clouds FEW060 84.2 59 43% 84 30.13 0.0
18 14:55 Vrbl 5 10.00 A Few Clouds FEW060 82.4 60.8 48% 83 30.14 0.0
18 14:35 Calm 10.00 Partly Cloudy SCT060 SCT070 82.4 60.8 48% 83 30.14 0.0
18 14:15 Vrbl 5 10.00 Partly Cloudy SCT060 SCT070 82.4 60.8 48% 83 30.15 0.0
18 13:55 E 9 10.00 Partly Cloudy SCT060 84.2 60.8 45% 84 30.15 0.0
18 13:35 E 6 10.00 Partly Cloudy SCT060 84.2 60.8 45% 84 30.16 0.0
18 13:15 E 8 10.00 Partly Cloudy SCT060 84.2 59 43% 84 30.16 0.0
18 12:55 NE 9 10.00 Fair CLR 84.2 59 43% 84 30.16 0.0
18 12:35 NE 5 G 13 10.00 Fair CLR 82.4 60.8 48% 83 30.17 0.0
18 12:15 Vrbl 5 G 13 10.00 Fair CLR 82.4 62.6 51% 83 30.17 0.0
18 11:55 Vrbl 5 10.00 Fair CLR 82.4 64.4 55% 84 30.17 0.0
18 11:35 Vrbl 6 G 12 10.00 Fair CLR 80.6 64.4 58% 82 30.17 0.0
18 11:15 NE 7 10.00 Fair CLR 80.6 64.4 58% 82 30.18 0.0
18 10:55 E 7 G 13 10.00 Fair CLR 80.6 64.4 58% 82 30.18 0.0
18 10:35 Vrbl 6 G 12 10.00 Fair CLR 78.8 64.4 61% 81 30.19 0.0
18 10:15 E 7 10.00 Fair CLR 77 64.4 65% 79 30.18 0.0
18 09:55 Vrbl 6 10.00 Fair CLR 77 66.2 69% 79 30.18 0.0
18 09:35 Vrbl 5 10.00 Fair CLR 77 68 74% 79 30.18 0.0
18 09:15 Vrbl 5 10.00 Fair CLR 75.2 68 78% 76 30.17 0.0
18 08:55 Calm 10.00 Fair CLR 73.4 68 83% 30.17 0.0
18 08:35 Calm 10.00 Fair CLR 71.6 66.2 83% 30.16 0.0
18 08:15 NE 5 10.00 Fair CLR 71.6 66.2 83% 30.16 0.0
18 07:35 Calm 10.00 Fair CLR 69.8 68 94% 30.14 0.0
18 07:15 Calm 10.00 Fair CLR 66.2 66.2 100% 30.13 0.0
18 06:55 Calm 10.00 Fair CLR 66.2 66.2 100% 30.13 0.0
18 06:35 Calm 10.00 Fair CLR 66.2 66.2 100% 30.12 0.0
18 06:15 Calm 10.00 Fair CLR 66.2 66.2 100% 30.11 0.0
18 05:55 Calm 10.00 Fair CLR 66.2 66.2 100% 30.11 0.0
18 05:35 Calm 10.00 Fair CLR 68 68 100% 30.11 0.0
18 05:15 Calm 10.00 Fair CLR 68 68 100% 30.1 0.0
18 04:55 Calm 10.00 Fair CLR 68 68 100% 30.09 0.0
18 04:35 NE 3 10.00 Fair CLR 68 68 100% 30.09 0.0
18 04:15 NE 3 10.00 A Few Clouds FEW055 68 68 100% 30.09 0.0
18 03:55 Calm 10.00 A Few Clouds FEW055 68 68 100% 30.08 0.0
18 03:35 E 5 10.00 Fair CLR 68 68 100% 30.08 0.0
18 03:15 Calm 10.00 Fair CLR 68 68 100% 30.08 0.0
18 02:55 Calm 10.00 Fair CLR 68 68 100% 30.09 0.0
18 02:35 Calm 10.00 Fair CLR 69.8 68 94% 30.09 0.0
18 02:15 NE 5 10.00 Fair CLR 69.8 68 94% 30.09 0.0
18 01:55 NE 3 10.00 Fair CLR 69.8 68 94% 30.1 0.0
18 01:35 Calm 10.00 Fair CLR 69.8 69.8 100% 30.1 0.0
18 01:15 NE 3 10.00 Fair CLR 69.8 69.8 100% 30.11 0.0
18 00:55 Calm 10.00 Fair CLR 69.8 69.8 100% 30.1 0.0
18 00:35 Calm 10.00 Fair CLR 69.8 69.8 100% 30.1 0.0
18 00:15 Calm 10.00 Fair CLR 71.6 69.8 94% 30.1 0.0
17 23:55 Calm 10.00 Partly Cloudy SCT085 71.6 69.8 94% 30.1 0.0
17 23:35 Calm 10.00 Overcast OVC080 71.6 71.6 100% 30.1 0.0
17 23:15 Calm 10.00 Overcast OVC080 71.6 71.6 100% 30.09 0.0
17 22:55 Calm 10.00 Overcast OVC080 73.4 73.4 100% 30.1 0.0 0.01
17 22:35 N 3 10.00 Mostly Cloudy BKN080 73.4 73.4 100% 30.09 0.0
17 22:15 Calm 10.00 Partly Cloudy SCT075 71.6 71.6 100% 30.08 0.0
17 21:55 Calm 10.00 Partly Cloudy SCT075 73.4 73.4 100% 30.07 0.0
17 21:35 Calm 10.00 A Few Clouds FEW050 FEW075 73.4 73.4 100% 30.06 0.0
17 21:15 Calm 10.00 Partly Cloudy FEW050 SCT075 73.4 73.4 100% 30.05 0.0
17 20:55 Calm 10.00 A Few Clouds FEW040 73.4 73.4 100% 30.04 0.0 0.05
17 20:35 Calm 10.00 Mostly Cloudy BKN041 BKN049 BKN080 73.4 73.4 100% 30.03 0.0
17 20:15 Calm 10.00 Mostly Cloudy FEW033 BKN042 BKN049 75.2 73.4 94% 74 30.02 0.0
17 19:55 N 8 G 14 3.00 Rain Haze FEW028 SCT035 BKN041 80.6 73.4 79% 85 30.03 0.0 0.02
17 19:35 Calm 10.00 Mostly Cloudy SCT042 SCT049 BKN055 84.2 73.4 70% 91 30.01 0.0
17 19:15 N 6 10.00 Mostly Cloudy FEW035 FEW044 BKN050 84.2 73.4 70% 91 30.01 0.0
17 18:55 Vrbl 6 10.00 Partly Cloudy FEW034 SCT046 SCT055 84.2 73.4 70% 91 30.01 0.0
17 18:35 Calm 10.00 A Few Clouds FEW032 84.2 73.4 70% 91 30.01 0.0
17 18:15 Calm 10.00 Fair CLR 84.2 73.4 70% 91 30.01 0.0
17 17:55 Calm 10.00 A Few Clouds FEW027 84.2 73.4 70% 91 30 0.0
17 17:35 NE 5 10.00 A Few Clouds FEW027 84.2 75.2 74% 92 30 0.0
17 17:15 Vrbl 5 10.00 Fair CLR 84.2 73.4 70% 91 30 0.0
17 16:55 NW 6 10.00 A Few Clouds FEW022 82.4 75.2 79% 89 30 0.0
17 16:35 Vrbl 3 10.00 Partly Cloudy SCT020 82.4 75.2 79% 89 30.01 0.0
17 16:15 Calm 10.00 Partly Cloudy SCT018 82.4 75.2 79% 89 30.01 0.0
17 15:55 Vrbl 5 10.00 A Few Clouds FEW015 80.6 75.2 84% 86 30.02 0.0
17 15:35 Calm 10.00 A Few Clouds FEW060 80.6 75.2 84% 86 30.03 0.0
17 15:15 Calm 10.00 Mostly Cloudy FEW016 FEW026 BKN055 78.8 75.2 89% 82 30.04 0.0
17 14:55 N 5 10.00 Mostly Cloudy FEW014 SCT026 BKN048 78.8 75.2 89% 82 30.04 0.0
17 14:35 NW 5 10.00 Overcast SCT014 BKN048 OVC055 78.8 75.2 89% 82 30.05 0.0
17 14:15 N 5 10.00 Overcast FEW011 SCT016 OVC050 78.8 75.2 89% 82 30.04 0.0
17 13:55 Calm 10.00 Mostly Cloudy FEW010 SCT025 BKN033 77 75.2 94% 78 30.05 0.0
17 13:35 Calm 10.00 Light Rain BKN024 OVC031 77 75.2 94% 78 30.05 0.0
17 13:15 W 6 10.00 Overcast FEW014 OVC021 75.2 73.4 94% 74 30.05 0.0
17 12:55 SW 9 10.00 Overcast SCT013 BKN021 OVC044 77 75.2 94% 78 30.05 0.0
17 12:35 S 5 10.00 Overcast SCT014 BKN028 OVC049 77 75.2 94% 78 30.04 0.0
17 12:15 S 6 10.00 Overcast BKN014 BKN025 OVC032 77 75.2 94% 78 30.04 0.0
17 11:55 Calm 10.00 Overcast SCT013 BKN017 OVC025 77 75.2 94% 78 30.03 0.0
17 11:35 SW 5 10.00 Overcast FEW014 OVC024 75.2 75.2 100% 73 30.03 0.0
17 11:15 Calm 10.00 Overcast FEW011 FEW017 OVC024 75.2 75.2 100% 73 30.02 0.0
17 10:55 S 5 10.00 Overcast BKN024 OVC029 75.2 73.4 94% 74 30.01 0.0
17 10:35 Calm 10.00 Mostly Cloudy BKN024 75.2 75.2 100% 73 29.99 0.0
17 10:15 Calm 10.00 Overcast OVC024 75.2 75.2 100% 73 29.99 0.0
17 09:55 Vrbl 5 10.00 Light Rain BKN023 75.2 75.2 100% 73 29.99 0.0 0.01
17 09:35 S 7 9.00 Light Rain FEW026 73.4 73.4 100% 29.99 0.0
17 09:15 SE 6 8.00 Light Rain CLR 73.4 73.4 100% 29.99 0.0
17 08:55 Vrbl 5 9.00 Light Rain CLR 73.4 73.4 100% 30 0.0 0.01
17 08:35 SE 5 G 13 10.00 Light Rain FEW018 73.4 73.4 100% 29.99 0.0
17 08:15 SE 6 9.00 Light Rain FEW015 FEW085 73.4 73.4 100% 29.99 0.0
17 07:55 Vrbl 5 9.00 Light Rain FEW012 SCT085 71.6 71.6 100% 29.97 0.0 0.03
17 07:35 Calm 9.00 Light Rain SCT012 SCT095 71.6 71.6 100% 29.95 0.0
17 07:15 Calm 9.00 Light Rain FEW075 FEW095 FEW120 73.4 73.4 100% 29.93 0.0
17 06:55 N 7 7.00 Light Rain SCT075 SCT100 SCT120 73.4 73.4 100% 29.93 0.0 0.11
17 06:35 NW 9 7.00 Light Rain FEW050 SCT070 73.4 73.4 100% 29.93 0.0
17 06:15 NW 13 3.00 Light Rain Fog/Mist FEW011 FEW023 FEW048 73.4 73.4 100% 29.94 0.0
17 05:55 NW 15 G 22 2.50 Rain Fog/Mist SCT011 SCT029 BKN065 73.4 73.4 100% 29.95 0.0 0.06
17 05:35 NW 9 G 16 4.00 Light Rain Fog/Mist FEW012 SCT030 BKN070 73.4 73.4 100% 29.95 0.0
17 05:15 W 10 G 21 10.00 Light Rain FEW014 SCT032 OVC070 75.2 75.2 100% 73 29.95 0.0
17 04:55 W 10 G 20 9.00 Light Rain FEW013 SCT025 BKN043 73.4 73.4 100% 29.93 0.0 0.03
17 04:35 W 10 G 25 5.00 Light Rain Fog/Mist SCT012 BKN017 OVC070 75.2 75.2 100% 73 29.95 0.0
17 04:15 W 12 G 17 9.00 Light Drizzle FEW015 SCT047 BKN060 77 77 100% 78 29.94 0.0
17 03:55 SW 10 G 17 3.00 Light Rain Fog/Mist SCT004 BKN035 OVC120 75.2 75.2 100% 73 29.9 0.0 0.29
17 03:35 W 10 G 17 0.25 Heavy Rain Fog OVC004 77 75.2 94% 78 29.91 0.0
17 03:15 W 8 G 16 10.00 Overcast BKN070 OVC095 78.8 77 94% 83 29.91 0.0
17 02:55 S 6 8.00 Light Rain FEW060 BKN075 OVC090 78.8 78.8 100% 83 29.89 0.0
17 02:35 Calm 10.00 Overcast OVC070 78.8 78.8 100% 83 29.9 0.0
17 02:15 Calm 9.00 Overcast OVC075 78.8 78.8 100% 83 29.91 0.0
17 01:55 Calm 7.00 Overcast OVC075 78.8 78.8 100% 83 29.89 0.0
17 01:35 Calm 7.00 Overcast OVC070 78.8 78.8 100% 83 29.9 0.0
17 01:15 Calm 6.00 Fog/Mist BKN070 BKN080 78.8 78.8 100% 83 29.9 0.0
17 00:55 Calm 7.00 Fair CLR 78.8 78.8 100% 83 29.9 0.0
17 00:35 Calm 8.00 Fair CLR 78.8 78.8 100% 83 29.89 0.0
17 00:15 Calm 5.00 Fog/Mist CLR 77 77 100% 78 29.89 0.0
16 23:55 Calm 5.00 Fog/Mist CLR 77 77 100% 78 29.89 0.0
16 23:35 Calm 8.00 Fair CLR 78.8 78.8 100% 83 29.87 0.0
16 23:15 Calm 8.00 Fair CLR 78.8 78.8 100% 83 29.87 0.0
16 22:55 Calm 9.00 Fair CLR 78.8 78.8 100% 83 29.87 0.0
16 22:35 Calm 9.00 Fair CLR 78.8 78.8 100% 83 29.87 0.0
16 22:15 Calm 8.00 Fair CLR 78.8 78.8 100% 83 29.87 0.0
16 21:55 Calm 9.00 Fair CLR 80.6 80.6 100% 89 29.86 0.0
16 21:35 Calm 10.00 Fair CLR 80.6 80.6 100% 89 29.85 0.0
16 20:55 Calm 10.00 Fair CLR 82.4 80.6 94% 94 29.85 0.0
16 20:35 Calm 10.00 Fair CLR 84.2 80.6 89% 98 29.85 0.0
16 20:15 Calm 10.00 Fair CLR 86 80.6 84% 102 29.85 0.0
16 19:55 Calm 10.00 Fair CLR 86 80.6 84% 102 29.85 0.0
16 19:35 SE 3 10.00 Fair CLR 87.8 80.6 79% 105 29.85 0.0
16 19:15 SE 6 10.00 Fair CLR 87.8 80.6 79% 105 29.85 0.0
16 18:55 SE 6 10.00 Fair CLR 87.8 80.6 79% 105 29.86 0.0
16 18:35 E 8 10.00 Fair CLR 89.6 80.6 75% 108 29.86 0.0
16 18:15 E 8 10.00 Fair CLR 89.6 80.6 75% 108 29.86 0.0
16 17:55 Vrbl 6 10.00 Fair CLR 87.8 80.6 79% 105 29.86 0.0
16 17:35 Vrbl 3 10.00 Fair CLR 87.8 80.6 79% 105 29.86 0.0
16 17:15 Vrbl 5 10.00 Fair CLR 86 80.6 84% 102 29.86 0.0
16 16:55 E 6 10.00 Fair CLR 86 80.6 84% 102 29.85 0.0
16 16:35 E 6 8.00 Light Rain FEW060 FEW075 SCT110 86 80.6 84% 102 29.86 0.0
16 16:15 W 5 10.00 Fair CLR 89.6 78.8 71% 105 29.89 0.0
16 15:55 NW 7 10.00 Fair CLR 89.6 78.8 71% 105 29.89 0.0
16 15:35 W 6 7.00 Fair CLR 91.4 78.8 67% 108 29.89 0.0
16 15:15 NW 6 9.00 Fair CLR 91.4 78.8 67% 108 29.88 0.0
16 14:55 Calm 10.00 Fair CLR 93.2 77 59% 107 29.88 0.0
16 14:35 NE 5 9.00 Fair CLR 93.2 77 59% 107 29.87 0.0
16 14:15 Calm 8.00 Fair CLR 93.2 77 59% 107 29.86 0.0
16 13:55 Calm 10.00 Fair CLR 91.4 77 63% 105 29.86 0.0
16 13:35 Calm 10.00 Fair CLR 93.2 77 59% 107 29.87 0.0
16 13:15 Calm 10.00 Fair CLR 91.4 75.2 59% 103 29.88 0.0
16 12:55 NW 6 10.00 Fair CLR 91.4 77 63% 105 29.88 0.0
16 12:35 NW 8 10.00 Fair CLR 91.4 75.2 59% 103 29.88 0.0
16 12:15 NW 6 G 12 10.00 Fair CLR 91.4 75.2 59% 103 29.88 0.0
16 11:55 Calm 10.00 Fair CLR 91.4 73.4 56% 100 29.86 0.0
16 11:35 SW 10 10.00 Fair CLR 91.4 75.2 59% 103 29.85 0.0
16 11:15 S 9 10.00 Fair CLR 91.4 75.2 59% 103 29.85 0.0
16 10:55 SW 10 10.00 Fair CLR 89.6 75.2 63% 100 29.85 0.0
16 10:35 SW 8 G 15 10.00 Fair CLR 89.6 75.2 63% 100 29.86 0.0
16 10:15 SW 14 10.00 Fair CLR 89.6 75.2 63% 100 29.86 0.0
16 09:55 SW 14 10.00 Fair CLR 87.8 75.2 66% 98 29.87 0.0
16 09:35 SW 10 G 16 10.00 Fair CLR 86 75.2 70% 95 29.88 0.0
16 09:15 SW 13 10.00 Fair CLR 86 75.2 70% 95 29.89 0.0
16 08:55 SW 12 G 17 10.00 Fair CLR 84.2 75.2 74% 92 29.89 0.0
16 08:35 SW 9 10.00 Fair CLR 84.2 75.2 74% 92 29.88 0.0
16 08:15 SW 9 10.00 Fair CLR 84.2 75.2 74% 92 29.89 0.0
16 07:55 S 8 10.00 Fair CLR 82.4 75.2 79% 89 29.88 0.0
16 07:35 SW 7 10.00 Fair CLR 82.4 73.4 74% 88 29.88 0.0
16 07:15 SW 7 G 13 10.00 Fair CLR 82.4 73.4 74% 88 29.89 0.0
16 06:55 SW 10 G 16 10.00 Fair CLR 82.4 73.4 74% 88 29.88 0.0
16 06:35 SW 10 10.00 Fair CLR 82.4 73.4 74% 88 29.87 0.0
16 06:15 SW 9 10.00 Fair CLR 80.6 73.4 79% 85 29.85 0.0
16 05:55 S 12 10.00 Fair CLR 80.6 73.4 79% 85 29.85 0.0
16 05:35 S 10 10.00 Fair CLR 80.6 73.4 79% 85 29.84 0.0
16 05:15 S 9 10.00 Fair CLR 80.6 73.4 79% 85 29.84 0.0
16 04:55 S 12 4.00 Light Rain Haze CLR 82.4 73.4 74% 88 29.84 0.0
16 04:35 S 8 G 15 10.00 Fair CLR 82.4 73.4 74% 88 29.84 0.0
16 04:15 S 9 10.00 Fair CLR 82.4 73.4 74% 88 29.83 0.0
16 03:55 S 10 G 17 10.00 Fair CLR 82.4 75.2 79% 89 29.83 0.0
16 03:35 S 10 G 17 10.00 Fair CLR 82.4 75.2 79% 89 29.83 0.0
Date Time (cdt) Wind (mph) Vis. (mi.) Weather Sky Cond. Air Dwpt Max. Min. Relative Humidity Wind Chill (°F) Heat Index (°F) altimeter (in) sea level (mb) 1 hr 3 hr 6 hr
6 hour
Temperature (ºF) Pressure Precipitation (in)